RH
30 37 39 33 33 28 31 32 34 27 20 22 29 43 54 56 61 68 72 76 78 77 79 74 84 90 88 99 99 100 98 93 92 68 76 73 63 67 72 75 66 51 49 39
37 41 30 29 30 31 31 34 34 26 21 21 21 22 50 60 56 61 65 66 60 81 86 69 76 80 86 95 99 97 97 91 86 67 60 63 62 68 64 54 45 42 39 38
41 35 27 29 30 31 30 33 32 28 23 25 23 29 52 45 51 56 58 42 57 72 80 69 70 68 68 83 94 86 77 71 72 62 67 64 68 66 58 53 48 40 41 49
38 31 32 32 32 28 35 25 25 25 31 38 25 42 45 42 46 49 54 51 52 74 74 67 60 61 60 62 69 63 62 59 56 53 51 47 52 55 60 56 52 45 48 45
36 36 36 36 31 26 31 27 27 27 32 32 33 46 42 36 38 41 48 55 57 61 70 67 57 48 44 57 62 62 59 58 53 55 58 72 73 71 63 61 55 48 46 55
27 23 28 29 25 25 24 26 28 35 38 49 36 47 49 44 34 33 44 50 56 66 71 61 56 54 52 49 50 60 71 74 72 68 69 76 80 72 63 53 52 50 44 48
26 26 24 21 27 25 26 32 48 52 64 61 44 51 42 29 32 29 42 48 56 66 74 67 64 62 58 60 58 58 65 64 60 66 72 67 66 52 38 41 48 54 55 58
38 41 25 23 24 27 30 34 57 53 68 63 58 52 41 28 25 22 28 44 53 65 68 61 58 56 56 57 60 64 66 60 55 52 55 49 58 60 66 66 63 57 56 59
38 36 23 20 20 21 29 39 34 71 74 82 65 56 35 25 23 22 24 38 48 55 60 55 55 55 53 55 54 45 43 54 55 52 59 53 56 68 69 73 70 64 60 57
32 38 24 22 21 21 28 31 57 65 79 83 67 60 50 29 24 20 29 43 40 47 55 54 54 49 50 49 49 52 47 43 37 46 54 65 65 66 67 70 71 69 61 64
32 36 37 27 29 31 31 33 42 53 68 80 74 57 43 38 26 23 23 26 34 37 41 50 54 50 45 48 54 51 54 53 51 54 57 64 64 66 67 67 68 76 75 80
33 41 48 36 29 27 29 28 37 69 73 72 70 55 30 35 23 24 24 22 22 23 27 33 36 40 49 51 53 57 53 56 69 76 80 84 82 83 77 78 84 85 86 78
36 48 54 38 31 29 32 29 30 46 58 65 72 59 30 32 28 22 23 20 18 18 20 29 33 34 38 46 54 60 61 70 83 84 79 72 82 84 83 96 85 79 72 62
29 52 36 42 42 39 41 30 26 38 67 58 63 45 35 29 28 22 20 18 19 18 17 18 29 24 27 40 48 58 61 70 79 79 59 39 67 88 74 74 76 84 82 85
41 53 43 40 39 40 40 37 33 32 40 47 42 44 34 32 31 24 17 16 19 22 22 21 28 26 29 34 43 50 53 64 76 75 57 47 58 54 72 69 76 100 95 99
46 52 51 58 44 41 45 41 35 36 31 39 40 43 32 25 24 24 20 17 18 18 22 27 30 30 33 34 38 49 55 62 74 76 69 60 69 96 99 96 98 98 99 99
51 56 63 64 45 46 65 55 48 43 37 31 37 36 27 26 29 23 19 18 16 20 21 25 27 31 32 36 40 44 57 62 64 71 79 88 98 98 100 98 98 97 99 100
71 58 66 79 58 89 58 40 43 47 37 31 23 22 26 23 18 18 15 20 19 22 25 21 21 31 38 42 54 65 69 71 75 84 98 98 98 96 97 98 98 97 97 98
68 66 75 76 71 62 51 36 37 38 33 25 26 21 20 18 24 25 17 17 18 21 20 20 25 30 42 52 64 76 85 95 100 99 99 98 99 96 96 97 98 99 99 97
74 80 62 83 78 84 50 35 28 28 48 28 25 25 22 30 42 40 19 20 21 22 22 24 27 40 50 65 77 84 88 93 97 100 98 97 97 98 100 100 99 93 95 98
83 87 78 93 85 75 50 36 26 45 51 29 25 25 24 34 33 17 24 22 22 23 24 27 35 44 64 76 83 85 84 89 97 97 98 98 100 100 98 90 91 94 99 100
68 82 84 86 86 76 45 39 42 47 32 32 31 26 24 20 20 22 25 27 27 25 33 41 46 55 65 75 80 80 86 98 100 100 100 100 97 93 87 86 92 96 93 89
72 63 70 67 71 54 59 59 56 47 44 40 37 34 34 24 22 24 26 29 32 40 46 53 59 66 76 79 81 78 84 92 93 92 93 100 99 92 94 92 90 91 94 93
54 59 66 58 57 59 53 43 42 46 42 40 43 36 34 32 32 31 36 41 47 54 55 62 71 78 83 88 87 87 83 87 88 93 100 100 97 94 94 92 93 86 91 88
50 61 62 67 57 57 51 43 40 36 38 35 40 34 32 35 33 33 37 39 49 58 66 68 71 76 82 84 84 85 84 86 92 98 99 98 97 93 89 76 74 75 76 75
62 72 76 80 53 51 46 33 39 38 49 42 41 36 36 36 35 38 45 52 55 64 69 71 75 78 80 83 86 92 93 94 94 98 87 78 79 77 72 68 64 60 58 56
Wind_Speed
6 3 14 13 10 6 5 6 8 13 21 5 7 6 15 13 18 15 20 19 20 22 18 15 14 16 19 22 27 25 27 29 37 44 38 39 40 35 29 26 25 25 23 21
4 18 16 7 7 10 11 12 15 15 14 3 4 5 8 12 16 24 28 25 21 23 23 21 19 19 22 25 29 29 30 33 41 46 44 42 36 32 28 25 27 27 26 25
15 6 17 14 13 13 15 13 13 16 5 5 2 3 3 11 10 18 27 29 23 27 30 28 27 26 24 28 33 31 36 39 44 45 40 38 31 27 30 29 31 31 29 26
9 22 12 10 14 13 12 12 14 6 2 4 3 5 5 5 10 11 25 30 33 30 34 31 31 30 30 34 36 37 41 41 45 42 43 40 40 38 36 34 30 32 31 28
9 10 15 16 19 13 12 13 9 6 4 1 4 2 6 4 8 12 16 30 35 38 42 39 36 34 31 36 39 40 40 39 40 41 41 38 39 36 33 31 31 33 31 30
13 17 10 15 14 14 16 7 1 5 2 3 3 5 5 5 6 5 19 31 38 42 46 42 36 34 34 37 37 39 40 40 40 41 41 38 38 39 37 34 33 34 34 35
9 18 12 8 7 10 14 5 1 3 3 6 1 3 8 9 8 10 20 31 39 46 47 47 43 41 41 44 43 41 42 41 39 40 39 39 40 40 37 34 35 34 35 37
11 6 13 9 18 7 8 8 5 5 4 4 4 6 6 7 19 20 29 41 43 43 46 49 48 46 44 44 44 44 44 42 40 39 40 40 41 42 41 37 35 38 38 38
10 9 6 11 13 12 5 5 8 7 2 2 4 7 9 3 2 6 13 29 37 42 45 50 49 49 47 45 45 44 43 42 41 41 41 43 45 46 44 43 45 39 39 38
3 2 13 9 2 5 8 7 4 1 5 3 5 5 5 1 3 3 6 18 31 39 45 50 51 50 49 48 46 44 44 45 44 44 45 46 46 46 47 48 44 45 44 41
10 2 5 2 7 6 1 3 3 5 6 4 3 5 6 7 7 8 8 21 31 37 38 41 46 50 50 51 51 50 49 47 48 47 46 47 47 48 49 51 49 42 42 37
12 5 6 9 5 5 7 11 9 5 5 5 3 5 3 9 7 7 12 22 23 22 22 31 43 44 46 50 51 54 52 51 46 41 36 32 40 43 50 49 48 40 29 31
8 6 3 4 9 7 8 9 9 6 5 8 8 5 4 7 4 7 17 23 23 20 19 20 20 20 35 43 47 47 49 45 35 31 33 30 45 52 47 39 33 33 29 29
19 6 17 14 7 2 5 9 14 10 5 6 6 5 13 7 8 6 21 21 26 27 25 22 19 15 15 21 37 41 42 41 40 37 29 32 37 31 34 37 39 42 33 36
7 6 8 9 11 9 14 15 8 12 8 9 11 11 14 9 8 13 20 22 26 27 30 26 21 20 19 19 22 30 38 38 38 38 36 31 31 31 32 30 31 29 25 27
4 2 5 9 13 10 17 18 11 10 7 9 8 11 9 17 19 16 19 19 21 33 28 29 25 25 23 21 21 26 32 36 38 40 35 31 28 23 21 18 19 22 24 24
3 1 5 6 13 6 10 17 16 10 8 6 7 10 8 10 10 16 23 28 27 29 26 28 28 30 27 24 23 23 25 26 27 25 25 23 24 21 22 19 21 21 22 24
9 4 2 4 5 8 7 13 17 18 19 11 6 5 9 12 25 26 21 29 28 33 30 25 22 28 31 28 23 21 21 21 20 19 19 21 21 22 23 22 22 22 22 20
6 6 4 5 7 4 7 10 15 12 9 6 8 9 7 6 7 4 13 26 31 33 29 26 22 22 28 27 24 22 20 18 19 22 24 24 23 23 22 20 21 21 21 20
6 6 7 2 6 8 4 19 15 4 6 6 6 7 5 8 4 5 16 29 34 28 24 22 21 21 24 25 23 21 19 19 20 21 21 22 22 21 21 22 23 22 21 23
2 4 4 2 2 5 7 7 16 10 7 11 9 10 6 5 9 11 21 24 25 24 22 22 21 21 23 23 21 19 18 19 19 18 20 21 20 20 19 20 22 22 22 21
10 6 3 1 2 4 6 7 6 4 9 9 11 14 10 8 6 14 27 29 28 26 25 24 22 21 20 20 19 18 19 19 20 20 19 18 18 18 18 19 20 19 19 19
3 6 6 8 6 4 2 4 4 9 16 14 14 12 11 14 17 25 29 29 29 29 26 23 20 19 17 17 16 16 18 19 18 16 16 14 15 15 16 18 19 19 17 17
3 3 3 2 4 5 2 7 12 9 13 20 22 16 9 10 13 25 24 26 26 26 24 21 19 18 18 18 16 15 16 16 14 15 15 16 17 19 18 16 15 14 16 17
6 4 5 3 1 1 4 7 13 20 12 20 19 16 14 8 12 20 24 27 27 23 24 21 20 21 22 21 19 18 17 17 17 17 18 17 17 17 18 18 17 17 16 12
4 5 5 5 11 9 14 19 18 19 16 13 13 9 7 5 9 15 20 23 23 26 25 24 25 27 25 23 23 23 21 20 20 20 20 20 20 19 17 17 16 13 11 11
Wind_Direction
189 183 218 209 207 226 264 275 271 282 279 233 217 150 195 196 207 200 211 192 198 214 213 219 204 200 196 194 193 198 186 176 177 174 173 175 179 183 190 195 196 201 205 213
194 231 222 200 223 232 244 261 268 273 259 163 205 250 169 182 205 197 210 208 198 206 198 197 190 192 196 195 195 196 190 181 177 174 176 181 184 188 197 200 209 211 214 220
206 240 202 197 225 234 243 239 258 247 279 324 229 327 175 207 201 198 218 218 205 209 198 190 185 185 187 192 192 190 178 175 175 179 183 184 184 193 204 211 218 217 220 224
229 238 256 208 231 217 254 240 248 250 189 242 117 257 253 224 214 209 200 206 210 210 211 195 186 186 187 181 180 179 179 181 179 183 188 192 196 205 209 216 218 221 227 232
207 203 214 225 232 218 239 248 217 205 214 134 316 105 257 195 228 203 200 199 207 213 210 203 194 189 187 183 178 181 182 184 188 191 190 201 207 212 217 221 226 230 232 234
211 249 205 217 224 239 246 226 23 33 66 299 241 171 258 221 212 200 188 199 200 204 208 209 206 197 193 192 191 190 192 194 196 199 205 211 214 220 223 223 226 230 234 235
217 245 244 236 233 245 231 97 319 330 343 238 242 234 240 267 241 186 187 196 193 202 202 203 206 204 201 198 199 201 202 204 206 208 212 217 223 227 230 229 226 227 230 233
193 239 206 207 208 211 204 160 161 203 217 264 311 247 250 239 255 218 187 192 192 194 199 205 209 209 209 208 208 209 210 212 213 216 218 220 222 225 229 232 235 234 236 238
193 226 237 198 219 194 213 161 178 109 35 59 245 293 296 346 2 202 199 183 189 192 196 207 213 214 215 214 215 215 217 221 223 223 221 223 226 228 231 236 239 243 244 249
241 181 231 255 100 247 180 165 94 36 147 248 270 249 240 291 184 236 153 172 186 191 198 207 212 218 220 221 222 222 222 223 225 225 224 226 228 233 236 238 241 241 242 248
225 113 293 157 191 220 262 187 114 125 135 176 267 257 225 216 195 188 182 185 199 197 200 208 212 220 225 227 225 226 225 227 228 229 230 231 233 234 239 240 241 241 239 244
197 195 220 228 272 268 287 229 173 145 178 175 224 271 240 213 209 170 196 169 164 169 194 214 225 227 226 228 230 230 232 231 227 228 227 233 246 252 248 245 235 237 256 233
177 210 160 239 258 270 237 235 194 156 131 196 179 261 278 244 286 256 215 181 179 183 180 173 177 203 225 231 231 231 233 228 220 216 234 244 245 244 244 236 229 238 248 218
174 168 208 216 202 232 305 228 199 184 165 183 201 225 263 238 239 224 216 203 193 192 199 202 176 192 205 214 224 228 234 229 220 211 231 245 239 246 241 243 244 243 241 248
157 177 194 202 214 265 302 282 254 201 187 190 215 201 254 244 214 222 218 205 208 198 198 202 187 197 198 201 209 219 228 226 218 217 234 235 241 244 249 242 237 231 228 221
321 179 141 199 225 237 269 300 259 272 244 219 182 207 220 242 252 249 238 219 224 211 199 200 195 202 206 205 206 205 211 218 217 220 228 230 234 233 227 215 213 212 210 214
292 141 135 229 228 250 267 249 265 274 275 246 204 220 222 249 242 227 236 218 221 206 190 193 200 212 213 217 216 207 202 209 220 225 224 223 206 209 199 202 202 205 211 212
300 286 88 185 120 226 254 225 225 237 256 247 239 228 223 230 253 256 230 206 189 184 185 194 199 203 212 213 206 202 197 200 205 209 210 205 208 209 207 199 200 206 204 203
200 248 229 154 195 308 263 246 208 210 244 262 231 236 215 237 179 235 217 209 204 191 199 211 206 209 209 211 206 199 195 197 196 200 205 211 212 211 204 202 198 196 191 192
210 244 202 144 183 220 194 240 265 141 261 270 240 218 211 144 131 243 213 205 197 195 207 211 217 208 206 206 208 207 208 212 212 202 202 203 204 202 196 194 190 187 185 179
306 257 195 166 208 282 247 244 203 220 241 213 254 248 196 185 218 239 186 187 192 197 206 213 216 214 204 207 211 217 226 219 206 205 198 193 193 198 195 179 176 175 176 183
194 207 195 89 96 245 341 5 138 252 290 318 293 265 233 219 235 207 184 186 190 199 202 207 209 208 211 214 216 219 215 205 195 196 201 192 187 180 177 176 174 183 191 190
228 188 194 180 209 202 96 221 208 6 3 351 7 351 277 211 189 186 187 193 197 199 198 201 207 205 206 215 222 215 198 191 189 189 184 184 182 180 181 185 186 186 196 200
277 178 191 94 217 185 127 315 320 294 330 322 336 357 343 299 220 193 192 192 197 198 198 197 196 194 193 202 208 222 213 205 200 191 190 189 189 181 181 188 199 200 197 205
203 161 194 248 217 124 232 243 274 291 268 315 305 323 316 293 258 221 203 199 196 194 191 193 194 190 188 195 202 208 209 206 195 192 193 195 191 186 184 184 183 194 199 215
183 187 175 215 223 195 226 223 230 250 228 283 312 308 310 261 269 244 216 197 189 184 185 184 184 186 184 189 188 183 189 196 197 190 182 179 184 191 195 196 191 196 213 228